This demonstration page uses our WeatherBlox Daily Observations layout. Learn more.

Left ArrowRight Arrow

38.80484, -77.04692

Hourly Observations for July 4, 2018

Temp ( °F °C ) Dew Point ( °F °C ) Humidity (%) Winds ( mph kmh ) Pressure ( in mb ) Visibility ( mi km ) Precip ( " mm )
12:52 am 00:52 Mostly Cloudy 84 28.9 74 23.3 72 72 S 6 9 30.20 1023 10 16 0.00 0.00
1:52 am 01:52 Mostly Cloudy 83 28.3 74 23.3 74 74 SSE 7 11 30.20 1023 10 16 0.00 0.00
2:52 am 02:52 Mostly Cloudy 82 27.8 75 23.9 79 79 S 3 6 30.21 1023 10 16 0.00 0.00
3:52 am 03:52 Mostly Cloudy 81 27.2 74 23.3 79 79 SSE 6 9 30.21 1023 10 16 0.00 0.00
4:52 am 04:52 Mostly Cloudy 81 27.2 75 23.9 82 82 S 5 7 30.21 1023 10 16 0.00 0.00
5:52 am 05:52 Mostly Cloudy 80 26.7 75 23.9 85 85 S 3 6 30.23 1024 10 16 0.00 0.00
6:52 am 06:52 Mostly Cloudy 80 26.7 74 23.3 82 82 SE 5 7 30.25 1024 10 16 0.00 0.00
7:52 am 07:52 Mostly Cloudy 82 27.8 75 23.9 79 79 SSE 3 6 30.26 1025 10 16 0.00 0.00
8:52 am 08:52 Mostly Cloudy 84 28.9 75 23.9 74 74 SSE 3 6 30.27 1025 10 16 0.00 0.00
9:52 am 09:52 Partly Cloudy 86 30 76 24.4 72 72 Calm 30.27 1025 10 16 0.00 0.00
10:52 am 10:52 Partly Cloudy 88 31.1 75 23.9 66 66 SE 3 6 30.27 1025 10 16 0.00 0.00
11:52 am 11:52 Mostly Cloudy 89 31.7 73 22.8 59 59 Calm 30.27 1025 10 16 0.00 0.00
12:52 pm 12:52 Partly Cloudy 92 33.3 73 22.8 54 54 E 8 13 30.27 1025 10 16 0.00 0.00
1:52 pm 13:52 Mostly Cloudy 91 32.8 72 22.2 54 54 SE 8 13 30.25 1024 10 16 0.00 0.00
2:52 pm 14:52 Partly Cloudy 93 33.9 69 20.6 46 46 ESE 6 9 30.24 1024 10 16 0.00 0.00
3:52 pm 15:52 Mostly Cloudy 91 32.8 72 22.2 54 54 ESE 12 19 30.24 1024 10 16 0.00 0.00
4:52 pm 16:52 Mostly Cloudy 91 32.8 69 20.6 49 49 SSE 9 15 30.24 1024 10 16 0.00 0.00
5:52 pm 17:52 Mostly Cloudy 89 31.7 70 21.1 53 53 SE 5 7 30.26 1025 10 16 0.00 0.00
6:52 pm 18:52 Mostly Cloudy 88 31.1 71 21.7 57 57 SSE 5 7 30.25 1025 10 16 0.00 0.00
7:52 pm 19:52 Mostly Cloudy 89 31.7 70 21.1 53 53 E 8 13 30.25 1024 10 16 0.00 0.00
8:52 pm 20:52 Cloudy 87 30.6 71 21.7 59 59 E 7 11 30.25 1025 10 16 0.00 0.00
9:52 pm 21:52 Cloudy 87 30.6 71 21.7 59 59 E 7 11 30.26 1025 8 13 0.00 0.00
10:52 pm 22:52 Cloudy 85 29.4 72 22.2 65 65 ESE 8 13 30.26 1025 10 16 0.00 0.00
11:52 pm 23:52 Mostly Cloudy 83 28.3 73 22.8 72 72 SSE 7 11 30.27 1025 10 16 0.00 0.00

Powered by AerisWeather